KB1GNF Weather Reports


Display with metric or nautical units.
time (UTC)temp
F
wind
direction
speed
MPH
gust
MPH
rain 1hr
in
rain 24hr
in
rain mn
in
humidity
%
barometer
mb
20260506051010 62 200 3.0 8.0 0.00 0.01 0.00 71 1008.8
20260506050506 62 219 3.0 7.0 0.00 0.01 0.00 71 1008.7
20260506045007 62 211 3.0 7.0 0.00 0.01 0.00 71 1008.8
20260506044006 63 212 5.0 9.0 0.00 0.01 0.00 70 1008.6
20260506043508 63 213 2.0 8.0 0.00 0.01 0.00 70 1008.8
20260506042004 63 146 5.0 13.0 0.00 0.01 0.00 69 1008.6
20260506041522 63 238 5.0 13.0 0.00 0.01 0.00 68 1008.8
20260506041002 63 186 3.0 13.0 0.00 0.01 0.00 69 1008.8
20260506040505 63 230 6.0 13.0 0.00 0.01 0.00 68 1008.8
20260506035512 64 227 4.0 12.0 0.00 0.01 0.01 68 1008.8
20260506035005 64 216 4.0 10.0 0.00 0.01 0.01 68 1008.8
20260506034522 64 199 5.0 11.0 0.00 0.01 0.01 67 1008.9
20260506034004 64 154 6.0 13.0 0.00 0.01 0.01 67 1009.0
20260506033508 64 181 7.0 13.0 0.00 0.01 0.01 67 1008.8
20260506033020 64 193 5.0 9.0 0.00 0.01 0.01 67 1008.9
20260506032507 64 195 4.0 9.0 0.00 0.01 0.01 67 1008.8
20260506032012 64 200 6.0 9.0 0.00 0.01 0.01 68 1008.7
20260506031525 64 209 3.0 7.0 0.00 0.01 0.01 68 1008.7
20260506031015 65 187 3.0 7.0 0.00 0.01 0.01 69 1008.9
20260506030511 65 195 4.0 7.0 0.00 0.01 0.01 68 1008.8
20260506030020 65 208 4.0 7.0 0.00 0.01 0.01 68 1008.8
20260506025505 65 259 3.0 7.0 0.00 0.01 0.01 68 1008.8
20260506025003 65 205 2.0 7.0 0.00 0.01 0.01 68 1008.8
20260506024533 65 252 3.0 7.0 0.00 0.01 0.01 68 1008.9
20260506024005 65 197 3.0 7.0 0.00 0.01 0.01 69 1008.8
20260506023508 65 169 3.0 7.0 0.00 0.01 0.01 68 1008.7
20260506023019 65 172 3.0 8.0 0.00 0.01 0.01 68 1008.6
20260506022508 65 199 4.0 8.0 0.00 0.01 0.01 68 1008.6
20260506022003 65 193 3.0 7.0 0.00 0.01 0.01 68 1008.8
20260506021003 65 200 2.0 11.0 0.00 0.01 0.01 69 1008.6
20260506020503 65 182 5.0 11.0 0.00 0.01 0.01 69 1008.7
20260506020010 65 226 5.0 10.0 0.00 0.01 0.01 70 1008.8
20260506015504 65 210 2.0 6.0 0.00 0.01 0.01 71 1008.7
20260506015004 65 203 4.0 6.0 0.00 0.01 0.01 71 1008.6
20260506014528 65 181 3.0 6.0 0.00 0.01 0.01 72 1008.6
20260506014003 65 199 3.0 6.0 0.00 0.01 0.01 73 1008.6
20260506013507 65 214 2.0 7.0 0.00 0.01 0.01 74 1008.5
20260506012502 65 219 1.0 7.0 0.00 0.01 0.01 75 1008.3
20260506011004 64 209 2.0 5.0 0.00 0.01 0.01 76 1008.2
20260506010503 64 177 3.0 5.0 0.00 0.01 0.01 77 1008.2
20260506010006 65 141 3.0 5.0 0.00 0.01 0.01 77 1008.1
20260506005504 65 240 0.0 3.0 0.00 0.01 0.01 77 1008.0
20260506005003 65 218 1.0 5.0 0.00 0.01 0.01 77 1008.0
20260506004512 65 219 2.0 5.0 0.00 0.01 0.01 77 1008.1
20260506004004 65 169 2.0 4.0 0.00 0.01 0.01 77 1008.1
20260506003509 66 158 2.0 4.0 0.01 0.01 0.01 76 1008.0
20260506003018 66 213 1.0 5.0 0.01 0.01 0.01 76 1007.9
20260506002506 66 232 2.0 6.0 0.01 0.01 0.01 75 1007.9
20260506002007 66 223 3.0 6.0 0.01 0.01 0.01 75 1007.9
20260506001532 66 217 2.0 5.0 0.01 0.01 0.01 76 1007.9
20260506001004 66 225 1.0 5.0 0.01 0.01 0.01 76 1007.9
20260506000502 67 246 3.0 8.0 0.01 0.01 0.01 74 1007.7
20260506000006 67 205 4.0 8.0 0.01 0.01 0.01 72 1007.5
20260505235504 68 224 3.0 8.0 0.01 0.01 0.01 71 1007.5
20260505235004 68 222 3.0 8.0 0.01 0.01 0.01 70 1007.4
20260505234509 69 214 3.0 7.0 0.01 0.01 0.01 70 1007.5
20260505234005 70 233 4.0 7.0 0.01 0.01 0.01 66 1007.3
20260505233504 71 245 2.0 6.0 0.00 0.00 0.00 63 1007.1
20260505233020 73 210 2.0 10.0 0.00 0.00 0.00 58 1006.7
20260505232504 74 269 4.0 15.0 0.00 0.00 0.00 53 1006.2
20260505232005 74 200 7.0 15.0 0.00 0.00 0.00 52 1005.5
20260505231525 74 159 8.0 19.0 0.00 0.00 0.00 51 1005.4
20260505231007 74 215 10.0 19.0 0.00 0.00 0.00 50 1005.4
20260505230505 75 181 9.0 19.0 0.00 0.00 0.00 50 1005.4
20260505230043 75 195 8.0 19.0 0.00 0.00 0.00 50 1005.2
20260505225506 75 215 6.0 15.0 0.00 0.00 0.00 50 1005.2
20260505225002 75 168 8.0 15.0 0.00 0.00 0.00 50 1005.3
20260505224505 75 210 8.0 15.0 0.00 0.00 0.00 50 1005.2
20260505224004 76 206 8.0 20.0 0.00 0.00 0.00 49 1005.2
20260505223504 76 213 12.0 20.0 0.00 0.00 0.00 49 1005.2
20260505223010 76 179 7.0 14.0 0.00 0.00 0.00 50 1005.0
20260505222505 76 86 7.0 15.0 0.00 0.00 0.00 50 1005.0
20260505222006 76 169 9.0 15.0 0.00 0.00 0.00 49 1004.9
20260505221526 76 171 6.0 18.0 0.00 0.00 0.00 49 1004.8
20260505221010 77 204 7.0 21.0 0.00 0.00 0.00 49 1004.6
20260505220506 77 204 10.0 23.0 0.00 0.00 0.00 49 1004.7
20260505220030 77 245 14.0 23.0 0.00 0.00 0.00 49 1004.9
20260505215505 77 207 11.0 20.0 0.00 0.00 0.00 48 1004.6
20260505215011 77 186 13.0 20.0 0.00 0.00 0.00 48 1004.8
20260505214526 78 187 9.0 21.0 0.00 0.00 0.00 48 1004.5
20260505214004 79 150 10.0 21.0 0.00 0.00 0.00 47 1004.5
20260505213505 79 221 11.0 18.0 0.00 0.00 0.00 46 1004.3
20260505213011 79 235 7.0 26.0 0.00 0.00 0.00 47 1004.2
20260505212505 78 163 13.0 26.0 0.00 0.00 0.00 46 1004.3
20260505212004 79 204 13.0 23.0 0.00 0.00 0.00 45 1004.1
20260505211515 79 172 14.0 23.0 0.00 0.00 0.00 45 1003.8
20260505211009 79 199 11.0 23.0 0.00 0.00 0.00 45 1003.9
20260505210505 80 180 12.0 23.0 0.00 0.00 0.00 44 1004.3
20260505210017 80 188 8.0 21.0 0.00 0.00 0.00 45 1004.0
20260505205506 80 173 9.0 22.0 0.00 0.00 0.00 45 1004.0
20260505205009 80 195 12.0 22.0 0.00 0.00 0.00 45 1003.9
20260505204521 80 199 10.0 21.0 0.00 0.00 0.00 43 1004.0
20260505204006 80 201 8.0 20.0 0.00 0.00 0.00 44 1004.0
20260505203509 81 254 9.0 23.0 0.00 0.00 0.00 44 1003.9
20260505203025 81 65 7.0 23.0 0.00 0.00 0.00 43 1003.9
20260505202505 81 150 7.0 13.0 0.00 0.00 0.00 43 1003.9
20260505202004 81 209 7.0 20.0 0.00 0.00 0.00 42 1004.0
20260505201514 82 143 9.0 22.0 0.00 0.00 0.00 42 1004.0
20260505201005 83 191 8.0 24.0 0.00 0.00 0.00 38 1004.0
20260505200506 83 267 10.0 26.0 0.00 0.00 0.00 34 1004.3
20260505200019 83 203 13.0 26.0 0.00 0.00 0.00 33 1004.2
20260505195504 83 206 9.0 22.0 0.00 0.00 0.00 33 1004.1
20260505195009 83 225 11.0 19.0 0.00 0.00 0.00 34 1004.2
20260505194011 82 220 13.0 24.0 0.00 0.00 0.00 34 1004.2
20260505193508 82 223 15.0 24.0 0.00 0.00 0.00 34 1004.1
20260505193023 82 15 9.0 17.0 0.00 0.00 0.00 43 1004.1
20260505192516 81 195 9.0 19.0 0.00 0.00 0.00 44 1004.3
20260505192008 81 196 9.0 24.0 0.00 0.00 0.00 43 1004.4
20260505191532 81 203 14.0 24.0 0.00 0.00 0.00 42 1004.4
20260505191010 80 195 11.0 19.0 0.00 0.00 0.00 44 1004.5
20260505190505 81 159 10.0 20.0 0.00 0.00 0.00 43 1004.6
20260505190014 81 186 8.0 24.0 0.00 0.00 0.00 44 1004.6
20260505185507 80 200 10.0 24.0 0.00 0.00 0.00 44 1004.6
20260505185006 81 134 12.0 20.0 0.00 0.00 0.00 43 1004.6
20260505184518 81 203 11.0 20.0 0.00 0.00 0.00 43 1004.7
20260505184008 81 124 10.0 17.0 0.00 0.00 0.00 43 1004.9
20260505183508 81 200 10.0 25.0 0.00 0.00 0.00 42 1005.0
20260505183024 81 242 9.0 25.0 0.00 0.00 0.00 42 1005.1
20260505182509 81 195 16.0 25.0 0.00 0.00 0.00 42 1005.3
20260505182016 81 148 13.0 19.0 0.00 0.00 0.00 41 1005.2
20260505181527 81 194 9.0 18.0 0.00 0.00 0.00 43 1005.3
20260505181010 80 220 10.0 19.0 0.00 0.00 0.00 45 1005.3
20260505180510 80 201 11.0 23.0 0.00 0.00 0.00 43 1005.4
20260505180043 80 223 12.0 23.0 0.00 0.00 0.00 44 1005.4
20260505175512 80 190 10.0 16.0 0.00 0.00 0.00 46 1005.5
20260505175005 80 190 11.0 19.0 0.00 0.00 0.00 44 1005.5
20260505174513 80 162 9.0 19.0 0.00 0.00 0.00 43 1005.6
20260505174007 81 136 12.0 19.0 0.00 0.00 0.00 44 1005.7
20260505173507 80 106 9.0 18.0 0.00 0.00 0.00 43 1005.7
20260505173019 80 155 8.0 21.0 0.00 0.00 0.00 43 1005.8
20260505172515 80 178 10.0 21.0 0.00 0.00 0.00 43 1005.8
20260505172007 80 221 8.0 20.0 0.00 0.00 0.00 43 1005.8
20260505171505 79 162 8.0 20.0 0.00 0.00 0.00 44 1005.9
20260505171006 80 244 10.0 21.0 0.00 0.00 0.00 43 1006.0
20260505170503 80 151 8.0 21.0 0.00 0.00 0.00 44 1005.9
20260505170006 80 203 9.0 20.0 0.00 0.00 0.00 45 1005.9
20260505165504 80 226 10.0 17.0 0.00 0.00 0.00 44 1005.9
20260505165004 80 208 10.0 16.0 0.00 0.00 0.00 45 1006.2
20260505162503 78 70 7.0 15.0 0.00 0.00 0.00 47 1006.7
20260505162003 78 150 7.0 15.0 0.00 0.00 0.00 48 1006.7
20260505161502 77 186 7.0 13.0 0.00 0.00 0.00 48 1006.9
20260505161003 77 160 6.0 13.0 0.00 0.00 0.00 48 1006.9
20260505160504 77 171 5.0 12.0 0.00 0.00 0.00 48 1007.0
20260505153010 75 150 5.0 9.0 0.00 0.00 0.00 53 1007.5
20260505152003 74 208 2.0 11.0 0.00 0.00 0.00 54 1007.8
20260505151003 72 85 1.0 7.0 0.00 0.00 0.00 54 1008.0
20260505150503 72 208 4.0 9.0 0.00 0.00 0.00 57 1008.1
20260505140504 66 220 7.0 12.0 0.00 0.00 0.00 63 1008.9
20260505125005 60 231 5.0 9.0 0.00 0.00 0.00 71 1009.3
20260505124005 59 257 5.0 10.0 0.00 0.00 0.00 73 1009.2
20260505123504 59 212 5.0 8.0 0.00 0.00 0.00 73 1009.1
20260505123022 59 165 2.0 8.0 0.00 0.00 0.00 74 1009.1
20260505122504 58 205 2.0 8.0 0.00 0.00 0.00 74 1009.1
20260505122007 57 204 3.0 7.0 0.00 0.00 0.00 75 1009.2
20260505121512 57 160 3.0 7.0 0.00 0.00 0.00 75 1009.2
20260505121005 56 177 2.0 8.0 0.00 0.00 0.00 76 1009.2
20260505120504 56 187 3.0 8.0 0.00 0.00 0.00 77 1009.3
20260505120019 56 198 5.0 11.0 0.00 0.00 0.00 77 1009.4
20260505115507 55 232 6.0 11.0 0.00 0.00 0.00 77 1009.5
20260505114511 55 214 4.0 10.0 0.00 0.00 0.00 77 1009.4
20260505114006 55 186 4.0 10.0 0.00 0.00 0.00 78 1009.4
20260505113505 55 222 3.0 7.0 0.00 0.00 0.00 78 1009.4
20260505112509 54 160 1.0 2.0 0.00 0.00 0.00 79 1009.4
20260505112006 54 174 1.0 5.0 0.00 0.00 0.00 80 1009.3
20260505111518 53 148 1.0 5.0 0.00 0.00 0.00 80 1009.3
20260505111007 52 117 1.0 4.0 0.00 0.00 0.00 81 1009.3
20260505110506 51 117 0.0 4.0 0.00 0.00 0.00 83 1009.3
20260505102007 46 99 0.0 1.0 0.00 0.00 0.00 88 1008.6
20260505101529 46 99 0.0 1.0 0.00 0.00 0.00 88 1008.5
20260505101007 46 99 0.0 1.0 0.00 0.00 0.00 88 1008.5
20260505100506 46 214 0.0 1.0 0.00 0.00 0.00 89 1008.5
20260505100038 45 196 0.0 0.0 0.00 0.00 0.00 88 1008.4
20260505095506 46 197 0.0 0.0 0.00 0.00 0.00 88 1008.4
20260505095008 46 198 0.0 0.0 0.00 0.00 0.00 88 1008.5
20260505094515 46 198 0.0 1.0 0.00 0.00 0.00 87 1008.5
20260505094007 46 200 0.0 1.0 0.00 0.00 0.00 88 1008.4
20260505093507 46 229 0.0 1.0 0.00 0.00 0.00 88 1008.5
20260505093023 46 166 0.0 1.0 0.00 0.00 0.00 87 1008.5
20260505092507 46 138 0.0 2.0 0.00 0.00 0.00 87 1008.5
20260505092009 46 144 0.0 2.0 0.00 0.00 0.00 88 1008.6
20260505091520 46 160 0.0 2.0 0.00 0.00 0.00 87 1008.7
20260505091006 46 148 0.0 2.0 0.00 0.00 0.00 87 1008.8
20260505090508 46 195 0.0 2.0 0.00 0.00 0.00 87 1008.7
20260505090017 46 200 1.0 2.0 0.00 0.00 0.00 86 1008.8
20260505085508 46 212 0.0 1.0 0.00 0.00 0.00 86 1008.9
20260505085007 47 100 0.0 0.0 0.00 0.00 0.00 85 1009.0
20260505084516 47 100 0.0 2.0 0.00 0.00 0.00 85 1009.1
20260505083507 47 173 0.0 0.0 0.00 0.00 0.00 86 1009.0
20260505083015 47 173 0.0 0.0 0.00 0.00 0.00 86 1009.0
20260505082508 47 173 0.0 0.0 0.00 0.00 0.00 85 1009.0
20260505082009 47 173 0.0 0.0 0.00 0.00 0.00 85 1008.9
20260505081003 47 173 0.0 1.0 0.00 0.00 0.00 84 1009.0
20260505075503 48 135 0.0 0.0 0.00 0.00 0.00 82 1009.0
20260505075005 48 135 0.0 1.0 0.00 0.00 0.00 82 1009.0
20260505074009 49 210 0.0 1.0 0.00 0.00 0.00 81 1009.0
20260505073504 50 210 0.0 1.0 0.00 0.00 0.00 79 1009.0
20260505072507 51 205 0.0 2.0 0.00 0.00 0.00 78 1008.9
20260505072006 51 212 0.0 2.0 0.00 0.00 0.00 78 1009.0
20260505071519 51 224 0.0 2.0 0.00 0.00 0.00 77 1009.1
20260505071007 51 210 0.0 2.0 0.00 0.00 0.00 76 1009.0
20260505070512 52 242 0.0 3.0 0.00 0.00 0.00 75 1009.0
20260505065003 52 215 2.0 5.0 0.00 0.00 0.00 75 1009.0
20260505064506 52 228 2.0 4.0 0.00 0.00 0.00 75 1009.1
20260505064005 52 219 1.0 3.0 0.00 0.00 0.00 74 1009.1
20260505063504 53 253 0.0 3.0 0.00 0.00 0.00 74 1009.1
20260505062505 53 205 2.0 3.0 0.00 0.00 0.00 73 1009.1
20260505062007 53 229 1.0 4.0 0.00 0.00 0.00 73 1009.2
20260505061004 53 244 1.0 5.0 0.00 0.00 0.00 72 1009.3
20260505060511 53 249 2.0 5.0 0.00 0.00 0.00 72 1009.4
20260505060016 53 240 2.0 5.0 0.00 0.00 0.00 71 1009.4
20260505055510 54 232 2.0 5.0 0.00 0.00 0.00 71 1009.4
20260505055015 54 231 3.0 6.0 0.00 0.00 0.00 71 1009.5
20260505054522 54 248 3.0 6.0 0.00 0.00 0.00 70 1009.4
20260505054005 54 256 3.0 6.0 0.00 0.00 0.00 70 1009.4
20260505053506 54 250 3.0 6.0 0.00 0.00 0.00 70 1009.4
20260505052505 54 237 3.0 6.0 0.00 0.00 0.00 70 1009.4